Weather History for KSGH - September, 2012

Change the Weather History Date:

Tuesday, September 25, 2012

  Actual Average (KDAY) Record (KDAY)
Temperature  
Mean Temperature 54 °F 62 °F  
Max Temperature 61 °F 72 °F 94 °F (1908)
Min Temperature 47 °F 51 °F 35 °F (1903)
Degree Days  
Heating Degree Days 11 5  
Month to date heating degree days 58  
Since 1 July heating degree days 60  
Cooling Degree Days 0 2  
Month to date cooling degree days 92  
Year to date cooling degree days 874  
Growing Degree Days 4 (Base 50)    
Moisture  
Dew Point 49 °F    
Average Humidity 76    
Maximum Humidity 90    
Minimum Humidity 52    
Precipitation  
Precipitation 0.01 in 0.10 in 2.19 in (1993)
Month to date precipitation 2.77  
Year to date precipitation 31.08  
Snow  
Snow 0.00 in 0.00 in - ()
Month to date snowfall 0.0  
Since 1 July snowfall 0.0  
Since 1 September snowfall 0.0  
Snow Depth -    
Sea Level Pressure  
Sea Level Pressure 30.03 in    
Wind  
Wind Speed 7 mph (SSW)    
Max Wind Speed 13 mph    
Max Gust Speed 21 mph    
Visibility 8 miles    
Events      
T = Trace of Precipitation, MM = Missing Value Source: NWS Daily Summary

Daily Weather History Graph

Daily Weather History Graph

Search for Another Location

Airport or City:

Trip Planner

Search our weather history database for the weather conditions in past years. The results will help you decide how hot, cold, wet, or windy it might be!

Date:

Astronomy

Sep. 25, 2012 Rise Set
Actual Time 7:26 AM EDT 7:26 PM EDT
Civil Twilight 6:59 AM EDT 7:53 PM EDT
Nautical Twilight 6:27 AM EDT 8:25 PM EDT
Astronomical Twilight 5:55 AM EDT 8:56 PM EDT
Moon 4:50 PM EDT (9/25) 2:47 AM EDT (9/25)
Length of Visible Light 12h 54m
Length of Day
12h 00m
Waxing Gibbous, 80% of the Moon is Illuminated
Sep 25
Waxing Gibbous
Sep 29
Full
Oct 8
Last Quarter
Oct 15
New
Oct 21
First Quarter

Hourly Weather History & Observations

Time (EDT) Temp. Dew Point Humidity Pressure Visibility Wind Dir Wind Speed Gust Speed Precip Events Conditions
12:56 AM 47.8 °F 36.0 °F 63% 30.08 in 10.0 mi SSW 5.8 mph - N/A   Clear
1:56 AM 48.9 °F 36.9 °F 63% 30.07 in 10.0 mi SSW 8.1 mph - N/A   Clear
2:56 AM 50.0 °F 36.9 °F 61% 30.07 in 10.0 mi SSW 5.8 mph - N/A   Clear
3:56 AM 48.9 °F 36.9 °F 63% 30.06 in 10.0 mi SSW 5.8 mph - N/A   Clear
4:56 AM 48.9 °F 37.9 °F 66% 30.06 in 9.0 mi South 4.6 mph - N/A   Clear
5:56 AM 48.9 °F 38.8 °F 68% 30.05 in 9.0 mi SSE 3.5 mph - N/A   Overcast
6:56 AM 50.0 °F 39.9 °F 68% 30.03 in 9.0 mi South 8.1 mph - N/A   Overcast
7:56 AM 50.9 °F 39.9 °F 66% 30.05 in 9.0 mi South 6.9 mph - N/A   Overcast
8:56 AM 54.9 °F 41.0 °F 60% 30.07 in 8.0 mi South 6.9 mph - N/A   Overcast
9:56 AM 57.9 °F 41.9 °F 55% 30.05 in 8.0 mi South 9.2 mph - N/A   Scattered Clouds
10:56 AM 61.9 °F 43.9 °F 52% 30.03 in 8.0 mi SSW 9.2 mph - N/A   Clear
11:56 AM 61.9 °F 43.9 °F 52% 30.05 in 8.0 mi SSW 12.7 mph - N/A   Clear
12:56 PM 56.8 °F 48.9 °F 75% 30.06 in 3.0 mi SSW 12.7 mph 20.7 mph N/A   Haze
12:59 PM 55.4 °F 48.2 °F 77% 30.05 in 1.8 mi SSW 11.5 mph - N/A   Haze
1:09 PM 55.4 °F 51.8 °F 88% 30.05 in 3.0 mi SSW 8.1 mph - 0.01 in   Haze
1:56 PM 56.8 °F 50.9 °F 80% 30.03 in 9.0 mi South 6.9 mph - 0.01 in   Mostly Cloudy
3:29 PM 57.2 °F 53.6 °F 88% 30.00 in 7.0 mi SSW 9.2 mph - N/A   Overcast
3:56 PM 57.9 °F 54.9 °F 90% 30.01 in 7.0 mi SW 10.4 mph - N/A   Overcast
4:56 PM 59.9 °F 54.9 °F 83% 30.00 in 7.0 mi SSW 9.2 mph - N/A   Overcast
5:56 PM 59.9 °F 55.9 °F 87% 30.01 in 8.0 mi SSW 9.2 mph - N/A   Overcast
6:09 PM 60.8 °F 55.4 °F 82% 30.00 in 8.0 mi SSW 9.2 mph - N/A   Overcast
6:56 PM 59.9 °F 55.9 °F 87% 30.01 in 8.0 mi SSW 9.2 mph - N/A   Overcast
7:09 PM 60.8 °F 55.4 °F 82% 30.01 in 5.0 mi SSW 6.9 mph - N/A   Overcast
7:21 PM 59.0 °F 55.4 °F 88% 30.00 in 7.0 mi SSW 6.9 mph - N/A   Mostly Cloudy
7:31 PM 59.0 °F 55.4 °F 88% 30.00 in 8.0 mi SSW 6.9 mph - N/A   Mostly Cloudy
7:40 PM 59.0 °F 55.4 °F 88% 29.99 in 8.0 mi SSW 4.6 mph - N/A   Mostly Cloudy
7:47 PM 59.0 °F 55.4 °F 88% 29.99 in 8.0 mi South 4.6 mph - N/A   Scattered Clouds
7:56 PM 59.0 °F 55.9 °F 90% 29.99 in 8.0 mi SSW 5.8 mph - N/A   Scattered Clouds
8:56 PM 59.0 °F 55.9 °F 90% 29.98 in 7.0 mi South 4.6 mph - N/A   Scattered Clouds
9:56 PM 59.9 °F 55.9 °F 87% 30.00 in 8.0 mi SW 5.8 mph - N/A   Scattered Clouds
10:56 PM 61.0 °F 55.9 °F 83% 29.99 in 8.0 mi South 5.8 mph - N/A   Partly Cloudy
11:56 PM 59.9 °F 55.9 °F 87% 29.99 in 8.0 mi South 4.6 mph - N/A   Partly Cloudy